Weather reports worldwide

Advertisment
Gela, Italy (16453): temperature & dewpoint: 15.05.2019 16:00:00 - 21.05.2019 16:00:00 (CEST)Gela, Italy (16453): wind speed: 15.05.2019 16:00:00 - 21.05.2019 16:00:00 (CEST)Gela, Italy (16453): wind direction: 15.05.2019 16:00:00 - 21.05.2019 16:00:00 (CEST)Gela, Italy (16453): reduced air pressure: 15.05.2019 16:00:00 - 21.05.2019 16:00:00 (CEST)Gela, Italy (16453): visibility: 15.05.2019 16:00:00 - 21.05.2019 16:00:00 (CEST)Gela, Italy (16453): sunshine duration: 15.05.2019 16:00:00 - 21.05.2019 16:00:00 (CEST)
Date & Time tt [°C] td [°C] ff [km/h] ff [kn] dd ppp [hPa] vv [km] sd [min]
21.05.2019 16:00:00 - - - - - - - -
21.05.2019 15:00:00 18,0 11,0 22 12 WSW - 10 -
21.05.2019 14:00:00 17,4 11,9 24 13 WSW 1016,2 10 48
21.05.2019 13:00:00 17,0 12,0 22 12 W - 10 -
21.05.2019 12:00:00 17,0 12,0 22 12 W - 10 -
21.05.2019 11:00:00 17,0 11,5 21 11 W 1016,3 16 60
21.05.2019 10:00:00 16,0 11,0 13 7 SW - 10 -
21.05.2019 09:00:00 16,0 10,0 8 4 SW - 10 -
21.05.2019 08:00:00 15,0 9,2 0 0 N 1015,1 10 12
21.05.2019 07:00:00 - - - - - - - -
21.05.2019 06:00:00 - - - - - - - -
21.05.2019 05:00:00 - - - - - - - -
21.05.2019 04:00:00 - - - - - - - -
21.05.2019 03:00:00 - - - - - - - -
21.05.2019 02:00:00 - - - - - - - -
21.05.2019 01:00:00 - - - - - - - -
21.05.2019 00:00:00 - - - - - - - -
20.05.2019 23:00:00 - - - - - - - -
20.05.2019 22:00:00 - - - - - - - -
20.05.2019 21:00:00 - - - - - - - -
20.05.2019 20:00:00 18,8 5,3 13 7 WNW 1013,0 20 48
20.05.2019 19:00:00 18,0 10,0 21 11 W - 10 -
20.05.2019 18:00:00 18,0 12,0 18 10 W - 10 -
20.05.2019 17:00:00 17,8 11,6 28 15 W 1012,9 20 60
20.05.2019 16:00:00 18,0 12,0 22 12 W - 10 -
20.05.2019 15:00:00 18,0 12,0 24 13 W - 10 -
20.05.2019 14:00:00 17,4 11,2 26 14 W 1013,0 25 36
20.05.2019 13:00:00 17,0 10,0 16 9 WSW - 10 -
20.05.2019 12:00:00 17,0 10,0 13 7 WSW - 10 -
20.05.2019 11:00:00 17,2 9,1 11 6 WSW 1012,7 20 60
20.05.2019 10:00:00 17,0 9,0 8 4 SW - 10 -
20.05.2019 09:00:00 17,0 9,0 5 3 W - 10 -
20.05.2019 08:00:00 15,4 8,4 4 2 NE 1012,0 20 0
20.05.2019 07:00:00 - - - - - - - -
20.05.2019 06:00:00 - - - - - - - -
20.05.2019 05:00:00 - - - - - - - -
20.05.2019 04:00:00 - - - - - - - -
20.05.2019 03:00:00 - - - - - - - -
20.05.2019 02:00:00 - - - - - - - -
20.05.2019 01:00:00 - - - - - - - -
20.05.2019 00:00:00 - - - - - - - -
19.05.2019 23:00:00 - - - - - - - -
19.05.2019 22:00:00 - - - - - - - -
19.05.2019 21:00:00 - - - - - - - -
19.05.2019 20:00:00 17,8 12,7 18 10 W 1007,8 10 0
19.05.2019 19:00:00 17,0 12,0 21 11 W - 10 -
19.05.2019 18:00:00 16,0 11,0 29 16 W - 10 -
19.05.2019 17:00:00 17,6 12,3 29 16 W 1007,4 10 60
19.05.2019 16:00:00 18,0 13,0 28 15 WSW - 10 -
19.05.2019 15:00:00 18,0 13,0 31 17 W - 10 -
19.05.2019 14:00:00 18,0 12,8 28 15 W 1006,6 10 60
19.05.2019 13:00:00 18,0 13,0 31 17 W - 10 -
19.05.2019 12:00:00 17,0 12,0 29 16 W - 10 -
19.05.2019 11:00:00 18,0 13,1 28 15 W 1006,1 10 60
19.05.2019 10:00:00 17,0 12,0 16 9 W - 10 -
19.05.2019 09:00:00 17,0 13,0 11 6 WSW - 10 -
19.05.2019 08:00:00 16,4 12,3 4 2 W 1005,4 10 0
19.05.2019 07:00:00 - - - - - - - -
19.05.2019 06:00:00 - - - - - - - -
19.05.2019 05:00:00 - - - - - - - -
19.05.2019 04:00:00 - - - - - - - -
19.05.2019 03:00:00 - - - - - - - -
19.05.2019 02:00:00 - - - - - - - -
19.05.2019 01:00:00 - - - - - - - -
19.05.2019 00:00:00 - - - - - - - -
18.05.2019 23:00:00 - - - - - - - -
18.05.2019 22:00:00 - - - - - - - -
18.05.2019 21:00:00 - - - - - - - -
18.05.2019 20:00:00 18,4 12,3 16 9 ENE 1005,8 10 0
18.05.2019 19:00:00 19,0 12,0 21 11 NE - 10 -
18.05.2019 18:00:00 19,0 12,0 18 10 ENE - 10 -
18.05.2019 17:00:00 18,4 11,7 13 7 ENE 1005,9 10 0
18.05.2019 16:00:00 18,0 11,0 11 6 ENE - 10 -
18.05.2019 15:00:00 19,0 11,0 11 6 NE - 10 -
18.05.2019 14:00:00 18,4 10,3 11 6 ENE 1007,1 10 0
18.05.2019 13:00:00 19,0 10,0 4 2 ENE - 10 -
18.05.2019 12:00:00 18,0 11,0 8 4 NE - 10 -
18.05.2019 11:00:00 17,6 10,7 13 7 ENE 1007,3 10 0
18.05.2019 10:00:00 17,0 11,0 16 9 ENE - 10 -
18.05.2019 09:00:00 16,0 11,0 11 6 ENE - 10 -
18.05.2019 08:00:00 16,2 11,8 15 8 ENE 1007,2 10 0
18.05.2019 07:00:00 - - - - - - - -
18.05.2019 06:00:00 - - - - - - - -
18.05.2019 05:00:00 - - - - - - - -
18.05.2019 04:00:00 - - - - - - - -
18.05.2019 03:00:00 - - - - - - - -
18.05.2019 02:00:00 - - - - - - - -
18.05.2019 01:00:00 - - - - - - - -
18.05.2019 00:00:00 - - - - - - - -
17.05.2019 23:00:00 - - - - - - - -
17.05.2019 22:00:00 - - - - - - - -
17.05.2019 21:00:00 - - - - - - - -
17.05.2019 20:00:00 17,0 11,5 11 6 S 1009,7 18 18
17.05.2019 19:00:00 17,0 11,0 11 6 S - 10 -
17.05.2019 18:00:00 17,0 11,0 13 7 S - 10 -
17.05.2019 17:00:00 17,4 11,2 11 6 SSW 1010,1 20 60
17.05.2019 16:00:00 17,0 11,0 15 8 SSW - 10 -
17.05.2019 15:00:00 17,0 11,0 16 9 SSW - 10 -
17.05.2019 14:00:00 17,4 10,5 13 7 S 1010,9 23 60
17.05.2019 13:00:00 17,0 10,0 13 7 SSW - 10 -
17.05.2019 12:00:00 17,0 9,0 11 6 SSW - 10 -
17.05.2019 11:00:00 16,8 8,2 11 6 SSW 1011,7 20 60
17.05.2019 10:00:00 17,0 8,0 4 2 S - 10 -
17.05.2019 09:00:00 16,0 9,0 8 4 ENE - 10 -
17.05.2019 08:00:00 14,6 9,0 8 4 ENE 1011,2 20 60
17.05.2019 07:00:00 - - - - - - - -
17.05.2019 06:00:00 - - - - - - - -
17.05.2019 05:00:00 - - - - - - - -
17.05.2019 04:00:00 - - - - - - - -
17.05.2019 03:00:00 - - - - - - - -
17.05.2019 02:00:00 - - - - - - - -
17.05.2019 01:00:00 - - - - - - - -
17.05.2019 00:00:00 - - - - - - - -
16.05.2019 23:00:00 - - - - - - - -
16.05.2019 22:00:00 - - - - - - - -
16.05.2019 21:00:00 - - - - - - - -
16.05.2019 20:00:00 17,0 5,3 9 5 NNE 1008,0 20 36
16.05.2019 19:00:00 18,0 5,0 16 9 NNE - 10 -
16.05.2019 18:00:00 18,0 5,0 15 8 NNE - 10 -
16.05.2019 17:00:00 17,8 4,7 16 9 NNE 1005,9 25 48
16.05.2019 16:00:00 16,0 8,0 29 16 W - 10 -
16.05.2019 15:00:00 16,0 8,0 29 16 W - 10 -
16.05.2019 14:00:00 15,8 7,1 29 16 W 1005,7 20 60
16.05.2019 13:00:00 16,0 7,0 28 15 W - 10 -
16.05.2019 12:00:00 16,0 7,0 26 14 W - 10 -
16.05.2019 11:00:00 16,0 6,7 21 11 W 1006,1 20 48
16.05.2019 10:00:00 16,0 7,0 13 7 WNW - 10 -
16.05.2019 09:00:00 15,0 11,0 8 4 NNW - 10 -
16.05.2019 08:00:00 15,2 12,3 16 9 W 1005,6 20 0
16.05.2019 07:00:00 - - - - - - - -
16.05.2019 06:00:00 - - - - - - - -
16.05.2019 05:00:00 - - - - - - - -
16.05.2019 04:00:00 - - - - - - - -
16.05.2019 03:00:00 - - - - - - - -
16.05.2019 02:00:00 - - - - - - - -
16.05.2019 01:00:00 - - - - - - - -
16.05.2019 00:00:00 - - - - - - - -
15.05.2019 23:00:00 - - - - - - - -
15.05.2019 22:00:00 - - - - - - - -
15.05.2019 21:00:00 - - - - - - - -
15.05.2019 20:00:00 16,6 12,2 15 8 WSW 1010,4 10 42
15.05.2019 19:00:00 17,0 12,0 16 9 WSW - 10 -
15.05.2019 18:00:00 17,0 11,0 18 10 W - 10 -
15.05.2019 17:00:00 17,2 11,3 22 12 W 1010,4 10 24
15.05.2019 16:00:00 17,0 11,0 22 12 WSW - 10 -

tt = temperature
td = dewpoint
ff = wind speed
dd = wind direction
ppp = reduced air pressure
vv = visibility
sd = sunshine duration

Next stations